�N����,����,����,����,����,�C��,���x,�~����,�S�V����,�ő�u�ԕ���,,,,,
,,,,,,,,,����,����,����,�N��,,
yyyy/mm/dd,hh:mm:ss,(16),16����,m/s,��,%,mm,KW/�u,(16),16����,m/s,Time,,
2021/11/1,1:00:00,13,���k��,1.2,2,96.7,0,0,14,�k��,3.4,37,,
2021/11/1,2:00:00,13,���k��,2.7,1.7,99.6,0,0,12,��,3.9,55,,
2021/11/1,3:00:00,12,��,2,1.2,99.9,0,0,13,���k��,3.8,4,,
2021/11/1,4:00:00,13,���k��,2.4,0.6,99.1,0,0,14,�k��,3.5,52,,
2021/11/1,5:00:00,13,���k��,2.3,1.6,98.5,0,0,13,���k��,3.9,24,,
2021/11/1,6:00:00,13,���k��,1.4,0.9,98.3,0,0,13,���k��,4.2,2,,
2021/11/1,7:00:00,12,��,1.6,2.2,98.9,0,0.08,12,��,2.5,58,,
2021/11/1,8:00:00,14,�k��,1.9,7.6,83.7,0,0.25,14,�k��,2.7,59,,
2021/11/1,9:00:00,14,�k��,2.3,11.6,75.7,0,0.42,15,�k�k��,4.1,56,,
2021/11/1,10:00:00,2,�k��,2.4,12.6,65.8,0,0.48,3,���k��,4.8,5,,
2021/11/1,11:00:00,5,���쓌,3.5,14,59.7,0,0.65,6,�쓌,5.5,48,,
2021/11/1,12:00:00,5,���쓌,2.3,12.8,67.8,0,0.49,5,���쓌,4.7,5,,
2021/11/1,13:00:00,4,��,1.2,12.9,68.2,0,0.31,5,���쓌,4.3,3,,
2021/11/1,14:00:00,7,��쓌,1.5,12.1,70.3,0,0.26,6,�쓌,3.6,23,,
2021/11/1,15:00:00,5,���쓌,1.2,12.2,72.2,0,0.11,7,��쓌,2.5,19,,
2021/11/1,16:00:00,16,�É�,0,10.4,83.6,0,0.03,4,��,2.6,8,,
2021/11/1,17:00:00,4,��,1.8,10.5,81.1,0,0,5,���쓌,3.9,51,,
2021/11/1,18:00:00,3,���k��,5.6,10.3,82.8,0,0,4,��,10,34,,
2021/11/1,19:00:00,3,���k��,4.9,9.9,83.4,0,0,3,���k��,9.1,8,,
2021/11/1,20:00:00,3,���k��,5.2,9.3,83.9,0,0,3,���k��,10,45,,
2021/11/1,21:00:00,3,���k��,5.4,9,84.6,0,0,2,�k��,8.8,13,,
2021/11/1,22:00:00,3,���k��,4.7,8.8,84.1,0,0,3,���k��,7.9,58,,
2021/11/1,23:00:00,2,�k��,4,8.7,83.3,0,0,2,�k��,7.8,33,,
2021/11/1,0:00:00,1,�k�k��,2.8,7.9,81.9,0,0,1,�k�k��,5.9,21,,
2021/11/2,1:00:00,1,�k�k��,2.3,7.7,80.5,0,0,1,�k�k��,6.1,38,,
2021/11/2,2:00:00,16,�k,1.8,7.4,85.1,0,0,1,�k�k��,4.2,34,,
2021/11/2,3:00:00,15,�k�k��,1.4,6.7,94,0,0,15,�k�k��,3.6,15,,
2021/11/2,4:00:00,15,�k�k��,2.4,6.6,94.3,0,0,15,�k�k��,4.4,54,,
2021/11/2,5:00:00,15,�k�k��,1.6,6.6,95.8,0,0,15,�k�k��,4.2,10,,
2021/11/2,6:00:00,15,�k�k��,1.2,6.5,97.4,1,0,16,�k,3.7,26,,
2021/11/2,7:00:00,1,�k�k��,2.4,7.1,96.4,0,0.01,1,�k�k��,5.1,29,,
2021/11/2,8:00:00,1,�k�k��,2.2,7.3,97,0.5,0.03,2,�k��,5.4,6,,
2021/11/2,9:00:00,15,�k�k��,1.8,7.4,98.1,1.5,0.03,16,�k,3.9,26,,
2021/11/2,10:00:00,4,��,6.2,9.5,93.2,0.5,0.06,4,��,9.6,50,,
2021/11/2,11:00:00,5,���쓌,6,9.9,92.7,0.5,0.09,5,���쓌,10.6,49,,
2021/11/2,12:00:00,4,��,6.3,9.6,93.7,1.5,0.06,4,��,8.8,52,,
2021/11/2,13:00:00,4,��,6.7,9.4,94.3,2,0.05,5,���쓌,10.9,32,,
2021/11/2,14:00:00,4,��,5.2,8.9,92.8,3,0.03,5,���쓌,9.2,8,,
2021/11/2,15:00:00,4,��,4.2,9.2,94.6,1.5,0.02,4,��,9,4,,
2021/11/2,16:00:00,4,��,5.5,8.9,95.5,2,0.01,4,��,8.7,53,,
2021/11/2,17:00:00,4,��,6.2,8.5,94.7,2.5,0,4,��,9.4,55,,
2021/11/2,18:00:00,4,��,5.8,8.3,93.1,1,0,3,���k��,9.2,47,,
2021/11/2,19:00:00,4,��,6.6,8.4,91.5,0.5,0,3,���k��,9.8,53,,
2021/11/2,20:00:00,4,��,6.5,8.4,91.7,0.5,0,4,��,10.4,48,,
2021/11/2,21:00:00,3,���k��,5.1,7.9,91.3,0,0,3,���k��,9,36,,
2021/11/2,22:00:00,3,���k��,4.3,8.1,89.4,0.5,0,3,���k��,8.6,3,,
2021/11/2,23:00:00,14,�k��,2.3,6.8,96.2,0,0,3,���k��,6.3,3,,
2021/11/2,0:00:00,16,�k,1.9,6.7,95.5,0,0,15,�k�k��,5.3,32,,
2021/11/3,1:00:00,16,�k,1.8,6.3,94,0,0,15,�k�k��,4.4,14,,
2021/11/3,2:00:00,15,�k�k��,1.5,6.2,93.8,0,0,16,�k,4.1,31,,
2021/11/3,3:00:00,15,�k�k��,1.8,6,92.9,0,0,15,�k�k��,4.7,50,,
2021/11/3,4:00:00,15,�k�k��,2,5.9,95.7,0,0,15,�k�k��,4.7,57,,
2021/11/3,5:00:00,14,�k��,2.9,5.8,98.1,1,0,14,�k��,5.5,52,,
2021/11/3,6:00:00,14,�k��,4.1,5.8,98,0.5,0,15,�k�k��,7.3,51,,
2021/11/3,7:00:00,14,�k��,4.9,5.7,97.4,1,0.01,14,�k��,8.7,8,,
2021/11/3,8:00:00,14,�k��,4.9,5.7,97.3,0,0.02,14,�k��,9,35,,
2021/11/3,9:00:00,14,�k��,4.4,5.9,97.9,0.5,0.06,14,�k��,8.5,13,,
2021/11/3,10:00:00,14,�k��,4.6,6.5,96.5,0,0.08,14,�k��,8.3,49,,
2021/11/3,11:00:00,15,�k�k��,2.7,6.7,97.5,2,0.06,15,�k�k��,7.4,29,,
2021/11/3,12:00:00,14,�k��,4.1,7,97.9,6,0.05,14,�k��,7.4,57,,
2021/11/3,13:00:00,14,�k��,5,7.5,97.1,2.5,0.12,14,�k��,10,58,,
2021/11/3,14:00:00,14,�k��,6.1,7.8,96.8,0.5,0.11,14,�k��,10.4,20,,
2021/11/3,15:00:00,14,�k��,5.7,7.9,97.3,0.5,0.06,14,�k��,11,37,,
2021/11/3,16:00:00,14,�k��,5.4,7.8,97.3,0,0.02,14,�k��,10.9,16,,
2021/11/3,17:00:00,14,�k��,5.9,7.6,97.6,1,0,14,�k��,10.7,0,,
2021/11/3,18:00:00,14,�k��,5.3,7.8,97.3,0,0,14,�k��,10.5,6,,
2021/11/3,19:00:00,14,�k��,5.1,7.8,97.1,0.5,0,14,�k��,9.5,28,,
2021/11/3,20:00:00,14,�k��,4.9,7.8,95.7,0,0,15,�k�k��,10.8,38,,
2021/11/3,21:00:00,14,�k��,4.4,7.6,97.5,0,0,14,�k��,9.8,10,,
2021/11/3,22:00:00,14,�k��,3.9,7.4,97.7,1,0,14,�k��,8.5,29,,
2021/11/3,23:00:00,14,�k��,3.6,7.2,97.5,0,0,14,�k��,7.2,0,,
2021/11/3,0:00:00,14,�k��,4,7.2,98.3,1,0,13,���k��,8.1,31,,
2021/11/4,1:00:00,14,�k��,3.8,7,97.9,0.5,0,14,�k��,6.8,56,,
2021/11/4,2:00:00,14,�k��,2.6,7,97.2,0,0,14,�k��,6.6,19,,
2021/11/4,3:00:00,15,�k�k��,3.5,7,96.1,0.5,0,15,�k�k��,7.3,57,,
2021/11/4,4:00:00,15,�k�k��,3.2,6.8,96.5,1,0,14,�k��,7.3,7,,
2021/11/4,5:00:00,15,�k�k��,3.5,6.9,97.2,0,0,15,�k�k��,6.8,47,,
2021/11/4,6:00:00,14,�k��,5.2,6.8,97,2.5,0,14,�k��,8.4,55,,
2021/11/4,7:00:00,15,�k�k��,4.6,6.8,96.1,1.5,0.01,15,�k�k��,9.3,41,,
2021/11/4,8:00:00,14,�k��,4.1,7,94.4,0,0.05,15,�k�k��,9.8,0,,
2021/11/4,9:00:00,14,�k��,3.5,7.6,95.8,0.5,0.1,14,�k��,8.8,8,,
2021/11/4,10:00:00,14,�k��,4,8.5,91.5,0.5,0.15,14,�k��,8.8,21,,
2021/11/4,11:00:00,14,�k��,3.9,9.5,88.8,0,0.25,14,�k��,8.6,8,,
2021/11/4,12:00:00,15,�k�k��,3.8,10.4,85.6,0,0.28,15,�k�k��,9.1,42,,
2021/11/4,13:00:00,14,�k��,4.1,10.5,87,0,0.34,14,�k��,8.1,52,,
2021/11/4,14:00:00,14,�k��,3.9,10.4,86.8,0,0.22,14,�k��,7.6,23,,
2021/11/4,15:00:00,14,�k��,2,9.8,95.4,0,0.14,15,�k�k��,6,16,,
2021/11/4,16:00:00,15,�k�k��,2.5,9.7,91.8,0,0.05,14,�k��,5.2,43,,
2021/11/4,17:00:00,15,�k�k��,2,9,95.8,0,0,14,�k��,5.4,9,,
2021/11/4,18:00:00,14,�k��,1.7,8.8,98.4,0,0,15,�k�k��,3.5,12,,
2021/11/4,19:00:00,15,�k�k��,1.7,8.7,98.5,0,0,15,�k�k��,3.1,58,,
2021/11/4,20:00:00,14,�k��,1.8,8.8,98.1,0,0,14,�k��,3.8,50,,
2021/11/4,21:00:00,14,�k��,1.4,8.8,96.8,0,0,16,�k,3.4,21,,
2021/11/4,22:00:00,14,�k��,1.3,8.6,97,0,0,14,�k��,2.2,45,,
2021/11/4,23:00:00,14,�k��,1.5,8.8,96.4,0,0,2,�k��,6.9,3,,
2021/11/4,0:00:00,14,�k��,0.9,8.9,95.2,0,0,14,�k��,2.8,1,,
2021/11/5,1:00:00,14,�k��,1.5,8.6,96.4,0,0,14,�k��,3,16,,
2021/11/5,2:00:00,15,�k�k��,0.6,8.3,97.5,0,0,14,�k��,2.4,0,,
2021/11/5,3:00:00,14,�k��,1.7,8.1,97.9,0,0,14,�k��,2.9,51,,
2021/11/5,4:00:00,14,�k��,0.9,7.6,98.2,0,0,14,�k��,2.8,4,,
2021/11/5,5:00:00,14,�k��,1.8,7.7,98.6,0,0,14,�k��,3.2,55,,
2021/11/5,6:00:00,14,�k��,0.9,7.3,98.7,0,0,14,�k��,3.5,20,,
2021/11/5,7:00:00,7.5,��쓌,98.8,0,0.02,,,,,,,,
2021/11/5,8:00:00,14,�k��,1.3,8.5,97.2,0,0.06,14,�k��,3,41,,
2021/11/5,9:00:00,15,�k�k��,1.1,9.9,92.1,0,0.16,14,�k��,2.4,16,,
2021/11/5,10:00:00,10.8,�쐼,87.6,0,0.23,,,,,,,,
2021/11/5,11:00:00,15,�k�k��,0.7,10.4,89.1,0,0.16,14,�k��,1.7,30,,
2021/11/5,12:00:00,4,��,2.3,10.5,89.3,0,0.13,4,��,3.6,55,,
2021/11/5,13:00:00,4,��,2.2,11.6,88.1,0,0.19,4,��,3.4,50,,
2021/11/5,14:00:00,16,�É�,0.2,10.7,84.2,0,0.24,2,�k��,2.9,1,,
2021/11/5,15:00:00,16,�É�,0,10.6,86.8,0,0.1,12,��,1.5,33,,
2021/11/5,16:00:00,8,��,0.8,8.7,95.2,0,0.02,8,��,1.7,36,,
2021/11/5,17:00:00,1,�k�k��,0.5,5.5,97.9,0,0.01,8,��,1,21,,
2021/11/5,18:00:00,14,�k��,1.2,4.4,100,0,0,13,���k��,1.9,42,,
2021/11/5,19:00:00,13,���k��,0.9,6.6,100,0,0,2,�k��,3.9,2,,
2021/11/5,20:00:00,3,���k��,0.6,5.9,100,0,0,12,��,1.6,28,,
2021/11/5,21:00:00,14,�k��,1.3,7.2,100,0,0,16,�k,6.8,59,,
2021/11/5,22:00:00,3,���k��,1.2,7.7,93.9,0,0,2,�k��,3.3,56,,
2021/11/5,23:00:00,7.4,��쓌,96.5,0,0,,,,,,,,
2021/11/5,0:00:00,14,�k��,0.8,7.7,97.1,0.5,0,14,�k��,2.7,6,,
2021/11/6,1:00:00,13,���k��,1.1,6.9,97.7,0,0,12,��,2.1,55,,
2021/11/6,2:00:00,14,�k��,2.2,7,98.1,0,0,13,���k��,3.2,56,,
2021/11/6,3:00:00,14,�k��,1,6.7,97.7,0,0,13,���k��,3.8,2,,
2021/11/6,4:00:00,14,�k��,1,4.9,98.4,0,0,15,�k�k��,2.6,32,,
2021/11/6,5:00:00,14,�k��,1.1,6.6,99.7,0,0,14,�k��,2.7,50,,
2021/11/6,6:00:00,13,���k��,1.7,6.5,99.3,0,0,13,���k��,2.3,51,,
2021/11/6,7:00:00,16,�É�,0.2,5.9,99,0,0.02,15,�k�k��,2.1,18,,
2021/11/6,8:00:00,3,���k��,1.9,9.3,90.1,0,0.19,3,���k��,2.6,50,,
2021/11/6,9:00:00,3,���k��,1.8,9.7,85.2,0,0.23,2,�k��,3.7,30,,
2021/11/6,10:00:00,4,��,3.3,10.8,80,0,0.34,4,��,4.5,59,,
2021/11/6,11:00:00,4,��,2.9,9.7,81.3,0,0.29,4,��,5.1,32,,
2021/11/6,12:00:00,4,��,2.8,9.9,79.2,0,0.21,4,��,4.8,56,,
2021/11/6,13:00:00,5,���쓌,2.6,9.8,79.3,0,0.18,5,���쓌,4.6,23,,
2021/11/6,14:00:00,6,�쓌,2.3,9.7,78.5,0,0.15,6,�쓌,4.2,57,,
2021/11/6,15:00:00,6,�쓌,1.9,9.6,78.5,0,0.09,6,�쓌,3.7,27,,
2021/11/6,16:00:00,6,�쓌,1.4,9.1,79.1,0,0.04,6,�쓌,3.4,19,,
2021/11/6,17:00:00,11,���쐼,1,6.8,91.9,0,0.01,8,��,2.2,5,,
2021/11/6,18:00:00,12,��,0.9,6.3,96.7,0,0,12,��,1.4,50,,
2021/11/6,19:00:00,12,��,0.4,6.3,97.8,0,0,12,��,2.2,11,,
2021/11/6,20:00:00,13,���k��,0.5,4.6,98.9,0,0,13,���k��,2.4,28,,
2021/11/6,21:00:00,13,���k��,1.6,3.1,99.7,0,0,13,���k��,1.9,59,,
2021/11/6,22:00:00,13,���k��,1.9,5.4,100,0,0,13,���k��,2.5,58,,
2021/11/6,23:00:00,13,���k��,1.9,5.6,98.9,0,0,14,�k��,3.3,5,,
2021/11/6,0:00:00,13,���k��,1.3,4.8,100,0,0,14,�k��,2.5,59,,
2021/11/7,1:00:00,14,�k��,3.1,5.9,98.7,0,0,15,�k�k��,4.6,55,,
2021/11/7,2:00:00,12,��,1,6.2,96.6,0,0,15,�k�k��,3.3,22,,
2021/11/7,3:00:00,14,�k��,3.5,5.6,95.7,0,0,14,�k��,5.7,53,,
2021/11/7,4:00:00,14,�k��,2.6,5.6,95.8,0,0,14,�k��,5.3,31,,
2021/11/7,5:00:00,14,�k��,2.6,5.6,97.6,0,0,14,�k��,4,58,,
2021/11/7,6:00:00,14,�k��,3.2,4.6,99.6,0,0,14,�k��,5.5,59,,
2021/11/7,7:00:00,13,���k��,2.5,3.9,100,0,0.04,14,�k��,5.1,4,,
2021/11/7,8:00:00,14,�k��,2.3,5.5,95.9,0,0.21,14,�k��,4.1,59,,
2021/11/7,9:00:00,16,�É�,0.2,9.6,82.3,0,0.4,15,�k�k��,3.3,0,,
2021/11/7,10:00:00,5,���쓌,1.9,10.2,83.1,0,0.5,6,�쓌,3.2,52,,
2021/11/7,11:00:00,5,���쓌,1.4,11.6,79.7,0,0.6,5,���쓌,2.6,40,,
2021/11/7,12:00:00,7,��쓌,1.4,10.1,80.9,0,0.3,6,�쓌,2.8,23,,
2021/11/7,13:00:00,4,��,1.7,10.9,83.6,0,0.23,3,���k��,2.9,47,,
2021/11/7,14:00:00,3,���k��,1.5,11.7,81.8,0,0.27,3,���k��,2.5,48,,
2021/11/7,15:00:00,3,���k��,0.6,10.9,86.4,0,0.18,6,�쓌,2.5,19,,
2021/11/7,16:00:00,2,�k��,1.3,8.3,92.9,0,0.05,6,�쓌,2.3,30,,
2021/11/7,17:00:00,6.8,�쓌,95.6,0,0,,,,,,,,
2021/11/7,18:00:00,5.3,���쓌,97,0,0,,,,,,,,
2021/11/7,19:00:00,13,���k��,0.8,3.9,99.5,0,0,12,��,1.6,36,,
2021/11/7,20:00:00,1,�k�k��,0.9,2.7,100,0,0,2,�k��,1.6,54,,
2021/11/7,21:00:00,2,�k��,1.8,7.3,100,0,0,2,�k��,2.9,58,,
2021/11/7,22:00:00,2,�k��,1.7,7.7,96.9,0,0,1,�k�k��,2.8,4,,
2021/11/7,23:00:00,2,�k��,1.6,7.6,95.2,0,0,2,�k��,2.5,59,,
2021/11/7,0:00:00,1,�k�k��,0.9,7.5,94.3,0,0,3,���k��,2.6,26,,
2021/11/8,1:00:00,1,�k�k��,1.1,7.5,92.8,0,0,16,�k,2.7,31,,
2021/11/8,2:00:00,1,�k�k��,1.1,7.5,91.8,0,0,1,�k�k��,2.8,30,,
2021/11/8,3:00:00,16,�k,0.7,7.4,92.2,0,0,1,�k�k��,3,37,,
2021/11/8,4:00:00,1,�k�k��,2.1,7.3,89.9,0,0,1,�k�k��,3.2,56,,
2021/11/8,5:00:00,16,�k,1.7,7.1,89.3,0,0,15,�k�k��,3.5,20,,
2021/11/8,6:00:00,14,�k��,1.3,6.5,90.6,0,0,1,�k�k��,2.7,0,,
2021/11/8,7:00:00,14,�k��,1.8,6.2,89.6,0,0.01,14,�k��,3.2,7,,
2021/11/8,8:00:00,14,�k��,2.2,6.6,89,0,0.04,14,�k��,3.7,55,,
2021/11/8,9:00:00,14,�k��,2,7.9,86.4,0,0.12,14,�k��,3.4,42,,
2021/11/8,10:00:00,14,�k��,2.2,8.8,81,0,0.23,14,�k��,4.1,22,,
2021/11/8,11:00:00,1,�k�k��,1.3,10.2,81.3,0,0.27,14,�k��,3.2,3,,
2021/11/8,12:00:00,2,�k��,2,11.5,78.6,0,0.28,1,�k�k��,3.7,3,,
2021/11/8,13:00:00,2,�k��,2.5,10.7,78.1,0,0.27,3,���k��,3.6,40,,
2021/11/8,14:00:00,5,���쓌,1.1,10.4,81.7,0,0.16,3,���k��,4,17,,
2021/11/8,15:00:00,3,���k��,1.1,10.4,85.1,0,0.08,3,���k��,1.9,53,,
2021/11/8,16:00:00,16,�É�,0.1,9.9,89.4,0,0.04,4,��,1.3,22,,
2021/11/8,17:00:00,4,��,0.5,9.8,89.5,0,0,3,���k��,1.6,36,,
2021/11/8,18:00:00,16,�É�,0.2,9.2,93.8,0,0,2,�k��,1.7,21,,
2021/11/8,19:00:00,14,�k��,1.4,9.4,90.2,0,0,14,�k��,2.8,45,,
2021/11/8,20:00:00,14,�k��,1.7,9.1,92,0,0,14,�k��,2.7,59,,
2021/11/8,21:00:00,14,�k��,1.6,9.1,92.3,0,0,14,�k��,3.7,15,,
2021/11/8,22:00:00,15,�k�k��,1.8,8.9,91.3,0,0,15,�k�k��,3.1,57,,
2021/11/8,23:00:00,14,�k��,2.1,8.5,94.1,0,0,14,�k��,3.7,52,,
2021/11/8,0:00:00,13,���k��,2,8.5,96,0,0,14,�k��,4.1,5,,
2021/11/9,1:00:00,14,�k��,1.4,7.4,96.7,0,0,14,�k��,2.8,20,,
2021/11/9,2:00:00,13,���k��,0.9,8.2,97.9,0,0,13,���k��,2.2,35,,
2021/11/9,3:00:00,16,�É�,0.2,7.6,98.6,0,0,13,���k��,2.4,51,,
2021/11/9,4:00:00,8.4,��,99.3,0,0,,,,,,,,
2021/11/9,5:00:00,6,�쓌,1.5,10.8,98.8,0,0,6,�쓌,3.1,50,,
2021/11/9,6:00:00,5,���쓌,3.2,11.7,93.6,0,0,6,�쓌,5,12,,
2021/11/9,7:00:00,5,���쓌,2.5,12,92.6,0,0.03,6,�쓌,5.7,18,,
2021/11/9,8:00:00,4,��,3.8,12.1,91.9,0,0.04,5,���쓌,5.3,49,,
2021/11/9,9:00:00,4,��,3.7,13,89,0,0.07,4,��,6.1,15,,
2021/11/9,10:00:00,5,���쓌,3.4,13.3,88.1,0,0.15,4,��,5.8,4,,
2021/11/9,11:00:00,6,�쓌,2,13,88.7,0,0.13,5,���쓌,5.8,3,,
2021/11/9,12:00:00,5,���쓌,1.9,12.9,91.5,0,0.05,7,��쓌,5.4,16,,
2021/11/9,13:00:00,8,��,1.6,12.9,91.9,0,0.04,8,��,3.3,58,,
2021/11/9,14:00:00,6,�쓌,2.8,13.3,90.2,0,0.07,6,�쓌,5.7,54,,
2021/11/9,15:00:00,5,���쓌,2.8,12.7,92.7,0,0.04,6,�쓌,5.9,4,,
2021/11/9,16:00:00,5,���쓌,3.7,12.9,93.2,0,0.01,5,���쓌,5.8,58,,
2021/11/9,17:00:00,5,���쓌,4.3,12.6,95.6,0,0,5,���쓌,7.2,19,,
2021/11/9,18:00:00,4,��,4.5,12.4,98.4,4.5,0,5,���쓌,6.8,3,,
2021/11/9,19:00:00,10,�쐼,1.6,12.4,99,6,0,5,���쓌,8,11,,
2021/11/9,20:00:00,5,���쓌,1.6,12.4,99,8,0,6,�쓌,4,35,,
2021/11/9,21:00:00,12,��,1.6,12.5,99.4,10,0,12,��,2.7,52,,
2021/11/9,22:00:00,13,���k��,2.2,12.5,99.7,8.5,0,12,��,4.3,6,,
2021/11/9,23:00:00,3,���k��,2.3,12.9,98.4,9.5,0,11,���쐼,11.4,45,,
2021/11/9,0:00:00,14,�k��,4.4,12.9,99.7,11,0,13,���k��,7.8,50,,
2021/11/10,1:00:00,1,�k�k��,1.2,13.2,99.6,9.5,0,14,�k��,6.6,2,,
2021/11/10,2:00:00,14,�k��,2.4,13.2,99.6,10.5,0,4,��,10.9,3,,
2021/11/10,3:00:00,13.5,���k��,98.7,7.5,0,,,,,,,,
2021/11/10,4:00:00,15,�k�k��,2,13.1,99.7,2,0,14,�k��,2.9,53,,
2021/11/10,5:00:00,14,�k��,2.2,12.2,99.8,0.5,0,14,�k��,4.8,46,,
2021/11/10,6:00:00,14,�k��,1.8,12.3,99.9,0.5,0,13,���k��,4.3,27,,
2021/11/10,7:00:00,14,�k��,2.8,12.7,100,0,0.01,14,�k��,4.7,58,,
2021/11/10,8:00:00,14,�k��,3.1,13.7,98.8,0.5,0.05,14,�k��,6.5,54,,
2021/11/10,9:00:00,12,��,3.8,14.8,91,0,0.17,13,���k��,7.3,22,,
2021/11/10,10:00:00,16,�k,2.6,17.3,75.1,0,0.48,12,��,7.5,3,,
2021/11/10,11:00:00,16,�k,1.9,15.7,75.1,0,0.33,16,�k,4.4,49,,
2021/11/10,12:00:00,3,���k��,1.1,18.1,67.9,0,0.46,3,���k��,4.1,39,,
2021/11/10,13:00:00,6,�쓌,3,15.5,72.1,0,0.46,5,���쓌,4.6,35,,
2021/11/10,14:00:00,8,��,2.5,16,72,0,0.42,8,��,4.7,49,,
2021/11/10,15:00:00,11,���쐼,5,15.3,53.8,0,0.3,12,��,7.7,19,,
2021/11/10,16:00:00,10,�쐼,3.6,13.6,59.7,0,0.11,11,���쐼,6.9,30,,
2021/11/10,17:00:00,11,���쐼,2.1,10.3,72,0,0,10,�쐼,6.2,3,,
2021/11/10,18:00:00,5,���쓌,1.5,9.5,78,0,0,12,��,5,5,,
2021/11/10,19:00:00,4,��,2.1,9.9,81.3,0,0,9,��쐼,3.3,17,,
2021/11/10,20:00:00,9,��쐼,1.8,11,75.8,0,0,8,��,3.8,20,,
2021/11/10,21:00:00,9,��쐼,2.5,10.3,76.5,0,0,8,��,4.5,46,,
2021/11/10,22:00:00,9,��쐼,3.4,10.6,77.1,0,0,9,��쐼,6.1,55,,
2021/11/10,23:00:00,9,��쐼,3.1,11.1,81.2,0,0,8,��,6.1,42,,
2021/11/10,0:00:00,7,��쓌,2.1,10.7,84.4,0,0,8,��,6.1,6,,
2021/11/11,1:00:00,8,��,3.6,11.5,81,0,0,8,��,7,49,,
2021/11/11,2:00:00,8,��,3.2,11.6,80.1,0,0,8,��,7.4,42,,
2021/11/11,3:00:00,8,��,2.2,11.2,74.7,0,0,8,��,6.2,9,,
2021/11/11,4:00:00,9,��쐼,1.6,10.4,75.2,0,0,7,��쓌,3.6,3,,
2021/11/11,5:00:00,10,�쐼,3.1,10.3,75.9,0,0,10,�쐼,7.6,34,,
2021/11/11,6:00:00,10,�쐼,3.6,10.3,75,0,0,10,�쐼,9.6,13,,
2021/11/11,7:00:00,10,�쐼,2.9,10.7,73.8,0,0.04,10,�쐼,6.8,36,,
2021/11/11,8:00:00,10,�쐼,6.1,13.2,62.4,0,0.22,10,�쐼,11.2,50,,
2021/11/11,9:00:00,10,�쐼,6,13,62.5,0,0.37,11,���쐼,10.1,58,,
2021/11/11,10:00:00,11,���쐼,4.3,11.7,66.1,0,0.22,12,��,10.4,3,,
2021/11/11,11:00:00,10,�쐼,4.3,11.5,69.5,0,0.36,9,��쐼,8.8,35,,
2021/11/11,12:00:00,11,���쐼,5.4,10.7,71.8,0.5,0.27,12,��,9.4,18,,
2021/11/11,13:00:00,10,�쐼,4.6,11.9,59.9,0,0.43,11,���쐼,10.2,39,,
2021/11/11,14:00:00,11,���쐼,6.6,10.6,58.3,0,0.41,11,���쐼,11.6,58,,
2021/11/11,15:00:00,10,�쐼,3.9,9.7,66.8,0,0.14,11,���쐼,10.8,1,,
2021/11/11,16:00:00,10,�쐼,3.6,9.1,67.3,0,0.03,12,��,8.4,27,,
2021/11/11,17:00:00,10,�쐼,5,9.9,61.9,0,0,10,�쐼,10.3,8,,
2021/11/11,18:00:00,10,�쐼,1.8,8.9,64,0,0,11,���쐼,9,21,,
2021/11/11,19:00:00,10,�쐼,2.3,9.5,59.3,0,0,10,�쐼,11.1,23,,
2021/11/11,20:00:00,5,���쓌,1.8,7.8,69.2,0,0,12,��,7.4,24,,
2021/11/11,21:00:00,7,��쓌,0.4,7,72.9,0,0,6,�쓌,4,28,,
2021/11/11,22:00:00,8,��,1.6,8,71,0,0,5,���쓌,4.6,34,,
2021/11/11,23:00:00,7,��쓌,0.4,4.5,80.6,0,0,8,��,2.8,7,,
2021/11/11,0:00:00,3,���k��,1.9,2.8,89.5,0,0,2,�k��,2.7,48,,
2021/11/12,1:00:00,3,���k��,0.4,1.2,95.1,0,0,3,���k��,2.3,46,,
2021/11/12,2:00:00,7,��쓌,2.7,9.6,81.6,0,0,8,��,6,58,,
2021/11/12,3:00:00,8,��,2.2,10.3,86.5,0,0,9,��쐼,6.7,37,,
2021/11/12,4:00:00,14,�k��,1.7,7.4,96.2,3,0,14,�k��,5.8,15,,
2021/11/12,5:00:00,14,�k��,3.3,4.9,94.4,0,0,15,�k�k��,6.6,39,,
2021/11/12,6:00:00,15,�k�k��,1.3,3.9,93.4,0,0,14,�k��,5,18,,
2021/11/12,7:00:00,6,�쓌,1.3,3,98.7,0,0.05,14,�k��,2.9,2,,
2021/11/12,8:00:00,11,���쐼,0.8,6.3,85.7,0,0.21,11,���쐼,1.9,42,,
2021/11/12,9:00:00,7,��쓌,1.2,9.2,75.9,0,0.38,11,���쐼,2.7,13,,
2021/11/12,10:00:00,5,���쓌,3.4,11,76.7,0,0.5,5,���쓌,5.2,55,,
2021/11/12,11:00:00,6,�쓌,3,13.2,56.9,0,0.57,6,�쓌,4.9,56,,
2021/11/12,12:00:00,9,��쐼,2.7,13.8,45.2,0,0.66,5,���쓌,5.6,44,,
2021/11/12,13:00:00,12,��,4.7,14,43.8,0,0.6,10,�쐼,9.5,29,,
2021/11/12,14:00:00,12,��,6.2,13.1,40.5,0,0.44,13,���k��,10.2,39,,
2021/11/12,15:00:00,11,���쐼,4.6,12.1,49.9,0,0.29,11,���쐼,10.1,20,,
2021/11/12,16:00:00,12,��,4.6,9.6,54.9,0,0.08,13,���k��,8.6,14,,
2021/11/12,17:00:00,9,��쐼,1.3,8.6,55.5,0,0,13,���k��,6.4,0,,
2021/11/12,18:00:00,10,�쐼,1.6,6.3,71.1,0,0,10,�쐼,2.8,41,,
2021/11/12,19:00:00,10,�쐼,1.8,7.9,64.5,0,0,10,�쐼,5,34,,
2021/11/12,20:00:00,8,��,1,2.5,80.4,0,0,10,�쐼,2.2,15,,
2021/11/12,21:00:00,10,�쐼,0.4,2,88.4,0,0,9,��쐼,2.5,23,,
2021/11/12,22:00:00,12,��,0.4,2,81.4,0,0,9,��쐼,4.6,18,,
2021/11/12,23:00:00,11,���쐼,1.9,0.9,92.1,0,0,14,�k��,3.1,17,,
2021/11/12,0:00:00,10,�쐼,1.5,1.7,87.7,0,0,13,���k��,3.3,8,,
2021/11/13,1:00:00,12,��,4.1,5.5,77.4,0,0,13,���k��,6.3,56,,
2021/11/13,2:00:00,10,�쐼,2.2,6.1,77.9,0,0,11,���쐼,7,9,,
2021/11/13,3:00:00,9,��쐼,2.5,5.8,76.1,0,0,10,�쐼,4.7,36,,
2021/11/13,4:00:00,10,�쐼,4.1,6.5,73.2,0,0,10,�쐼,9.3,42,,
2021/11/13,5:00:00,10,�쐼,2.4,4.8,79.4,0,0,10,�쐼,5.6,31,,
2021/11/13,6:00:00,12,��,2.1,4.9,75.5,0,0,10,�쐼,6.1,27,,
2021/11/13,7:00:00,10,�쐼,0.5,3,91.8,0,0.03,1,�k�k��,2.9,6,,
2021/11/13,8:00:00,8,��,0.5,8.6,62.4,0,0.21,10,�쐼,3.5,29,,
2021/11/13,9:00:00,10,�쐼,3.1,9.8,48.5,0,0.38,11,���쐼,6.8,42,,
2021/11/13,10:00:00,2,�k��,2.5,10.7,50.2,0,0.52,1,�k�k��,5,28,,
2021/11/13,11:00:00,6,�쓌,2.2,12.2,49,0,0.41,13,���k��,6.1,39,,
2021/11/13,12:00:00,11,���쐼,6.7,11.7,45.2,0,0.65,11,���쐼,10.4,36,,
2021/11/13,13:00:00,12,��,5.9,11.4,41.3,0,0.54,11,���쐼,10.8,4,,
2021/11/13,14:00:00,12,��,6.2,10.9,44.6,0,0.43,11,���쐼,10.6,12,,
2021/11/13,15:00:00,12,��,3.6,10,47.1,0,0.27,12,��,8,17,,
2021/11/13,16:00:00,11,���쐼,1.6,7.6,55.9,0,0.07,12,��,4.5,2,,
2021/11/13,17:00:00,11,���쐼,3.2,7.3,59.9,0,0,12,��,5.1,44,,
2021/11/13,18:00:00,13,���k��,0.7,1.1,82.4,0,0,11,���쐼,4.5,2,,
2021/11/13,19:00:00,12,��,1.5,0.3,88.8,0,0,13,���k��,2.3,38,,
2021/11/13,20:00:00,0.3,�k,87.6,0,0,,,,,,,,
2021/11/13,21:00:00,11,���쐼,1,0.9,85.8,0,0,11,���쐼,2.6,11,,
2021/11/13,22:00:00,12,��,1.3,-1.1,94.5,0,0,11,���쐼,2.5,2,,
2021/11/13,23:00:00,13,���k��,1.5,-1.7,95,0,0,12,��,3.1,36,,
2021/11/13,0:00:00,13,���k��,1.4,-1.5,93.8,0,0,12,��,3.6,21,,
2021/11/14,1:00:00,12,��,2.2,-2.2,95.7,0,0,12,��,2.8,59,,
2021/11/14,2:00:00,13,���k��,2.6,-1.6,96.5,0,0,12,��,5.1,54,,
2021/11/14,3:00:00,13,���k��,1.9,-1.5,97.1,0,0,12,��,5,6,,
2021/11/14,4:00:00,13,���k��,1.3,0.3,96.1,0,0,13,���k��,3.3,14,,
2021/11/14,5:00:00,13,���k��,1.7,1.7,89.9,0,0,14,�k��,6.2,50,,
2021/11/14,6:00:00,13,���k��,1.2,0.4,93.5,0,0,13,���k��,4.3,12,,
2021/11/14,7:00:00,13,���k��,1.5,1.4,94,0,0.04,13,���k��,2.7,13,,
2021/11/14,8:00:00,14,�k��,1.8,5.2,78.7,0,0.17,14,�k��,5,41,,
2021/11/14,9:00:00,12,��,1.1,8.6,74,0,0.29,12,��,2.6,14,,
2021/11/14,10:00:00,9,��쐼,3.4,12.1,68.6,0,0.35,9,��쐼,6,51,,
2021/11/14,11:00:00,8,��,4.6,11.4,79.3,0,0.22,8,��,9,51,,
2021/11/14,12:00:00,8,��,2.7,11.8,80.2,0,0.18,8,��,7.9,1,,
2021/11/14,13:00:00,7,��쓌,2,11.3,87,0,0.13,7,��쓌,4.8,12,,
2021/11/14,14:00:00,6,�쓌,1.5,12.1,85.7,0,0.11,7,��쓌,5.1,17,,
2021/11/14,15:00:00,11.7,���쐼,84.1,0,0.06,,,,,,,,
2021/11/14,16:00:00,10,�쐼,2.6,12,80.3,0,0.01,10,�쐼,4.6,51,,
2021/11/14,17:00:00,12,��,2.3,10.1,91.5,0,0,9,��쐼,5.2,2,,
2021/11/14,18:00:00,11,���쐼,1.8,6.8,96.7,0.5,0,13,���k��,5.2,4,,
2021/11/14,19:00:00,13,���k��,2.5,7.1,97.4,0,0,14,�k��,5.4,34,,
2021/11/14,20:00:00,10,�쐼,1.3,6.7,97.2,0.5,0,14,�k��,4.6,29,,
2021/11/14,21:00:00,9,��쐼,0.8,5.4,97.1,0,0,13,���k��,3.4,12,,
2021/11/14,22:00:00,11,���쐼,1.5,2,99.8,0,0,13,���k��,2.9,48,,
2021/11/14,23:00:00,10,�쐼,2.4,5,100,0,0,9,��쐼,3.7,50,,
2021/11/14,0:00:00,12,��,1.2,2.7,99.9,0,0,14,�k��,3.4,13,,
2021/11/15,1:00:00,12,��,2.7,5.8,83,0,0,11,���쐼,6.1,32,,
2021/11/15,2:00:00,14,�k��,3.8,5.6,92.8,0,0,15,�k�k��,6.4,55,,
2021/11/15,3:00:00,12,��,2.6,2.8,95.5,0,0,14,�k��,5,38,,
2021/11/15,4:00:00,15,�k�k��,2,2.2,100,0,0,11,���쐼,3.5,24,,
2021/11/15,5:00:00,13,���k��,2,0.8,99.4,0,0,14,�k��,4.8,26,,
2021/11/15,6:00:00,13,���k��,1.9,0.8,100,0,0,14,�k��,5,16,,
2021/11/15,7:00:00,12,��,2.1,1.5,100,0,0.04,13,���k��,3.9,10,,
2021/11/15,8:00:00,16,�k,0.8,4.8,93,0,0.2,13,���k��,3.6,1,,
2021/11/15,9:00:00,16,�É�,0,9.5,71.2,0,0.37,13,���k��,2.9,29,,
2021/11/15,10:00:00,12,��,5.9,11,49.2,0,0.5,11,���쐼,11.1,52,,
2021/11/15,11:00:00,12,��,6.2,11.7,46.2,0,0.56,11,���쐼,10.6,23,,
2021/11/15,12:00:00,12,��,5.6,11.8,37.9,0,0.57,12,��,11.8,28,,
2021/11/15,13:00:00,12,��,6.3,11.4,44.7,0,0.52,13,���k��,10.4,58,,
2021/11/15,14:00:00,12,��,5.8,10.3,48,0,0.39,12,��,12.7,33,,
2021/11/15,15:00:00,11,���쐼,4.4,7.4,67.9,0,0.14,12,��,11.7,7,,
2021/11/15,16:00:00,11,���쐼,2.5,5.6,75.8,0,0.03,11,���쐼,5.7,0,,
2021/11/15,17:00:00,10,�쐼,2.5,4.4,77.6,0,0,10,�쐼,3.7,38,,
2021/11/15,18:00:00,13,���k��,1.6,2.4,85.8,0,0,11,���쐼,3.8,1,,
2021/11/15,19:00:00,13,���k��,1,0.4,92.7,0,0,14,�k��,3,26,,
2021/11/15,20:00:00,13,���k��,2.1,0.8,88.8,0,0,15,�k�k��,3.9,34,,
2021/11/15,21:00:00,12,��,1.3,-1.4,96.9,0,0,13,���k��,2.7,46,,
2021/11/15,22:00:00,13,���k��,0.5,-2.7,97,0,0,13,���k��,2.1,37,,
2021/11/15,23:00:00,12,��,1.4,-4.1,98.4,0,0,12,��,2.1,49,,
2021/11/15,0:00:00,13,���k��,1.8,-3.2,99.2,0,0,12,��,3.1,35,,
2021/11/16,1:00:00,12,��,2.9,-4,99.3,0,0,13,���k��,3.6,57,,
2021/11/16,2:00:00,14,�k��,1.3,-4,98,0,0,13,���k��,3.6,41,,
2021/11/16,3:00:00,13,���k��,2.8,-3.6,97.6,0,0,13,���k��,3.8,59,,
2021/11/16,4:00:00,13,���k��,2.4,-4.2,97.6,0,0,13,���k��,4,4,,
2021/11/16,5:00:00,12,��,2.6,-4.5,97.9,0,0,12,��,3.2,55,,
2021/11/16,6:00:00,12,��,2.3,-5.4,98.3,0,0,13,���k��,3.4,3,,
2021/11/16,7:00:00,12,��,2.4,-4.4,97.4,0,0.02,12,��,3.6,13,,
2021/11/16,8:00:00,12,��,1.3,-2.4,95.4,0,0.1,13,���k��,3.2,13,,
2021/11/16,9:00:00,13,���k��,1.8,2,82.6,0,0.32,13,���k��,3.1,7,,
2021/11/16,10:00:00,12,��,3,8.3,53.1,0,0.49,12,��,5.5,55,,
2021/11/16,11:00:00,13,���k��,5.6,8.7,40.8,0,0.6,13,���k��,9.3,59,,
2021/11/16,12:00:00,13,���k��,5,8.9,35.2,0,0.6,12,��,11.4,14,,
2021/11/16,13:00:00,12,��,5,9,43.7,0,0.55,11,���쐼,8.6,40,,
2021/11/16,14:00:00,12,��,6.8,7.9,41.3,0,0.42,12,��,12.5,27,,
2021/11/16,15:00:00,12,��,4.6,7.1,48,0,0.27,11,���쐼,10.2,1,,
2021/11/16,16:00:00,13,���k��,2,4.5,60.8,0,0.07,12,��,7.3,9,,
2021/11/16,17:00:00,15,�k�k��,1.7,3.2,67,0,0,14,�k��,4.3,35,,
2021/11/16,18:00:00,13,���k��,2.5,-1.2,87.6,0,0,14,�k��,3.3,1,,
2021/11/16,19:00:00,11,���쐼,1.5,-2.4,93.7,0,0,13,���k��,3.1,0,,
2021/11/16,20:00:00,13,���k��,2.5,-3.5,94.3,0,0,13,���k��,3.3,57,,
2021/11/16,21:00:00,13,���k��,2.4,-4.1,90.1,0,0,13,���k��,4.1,17,,
2021/11/16,22:00:00,13,���k��,2,-4.6,93.7,0,0,12,��,3,51,,
2021/11/16,23:00:00,13,���k��,1.8,-4.3,95.5,0,0,13,���k��,3.3,27,,
2021/11/16,0:00:00,12,��,1.8,-5.6,96.5,0,0,12,��,2.8,54,,
2021/11/17,1:00:00,12,��,1.8,-5.1,96.2,0,0,12,��,3,35,,
2021/11/17,2:00:00,13,���k��,2.1,-5,97.3,0,0,12,��,3,36,,